Flag for U.S.A. Weather past 2 weeks in Washington DC, District of Columbia, U.S.A.

Now
88 °F

Broken clouds.


Feels Like: 90 °F
Forecast: 70 / 90 °F
Wind: 7 mph from South

Location: Reagan National Airport

Current Time: May 28, 2015 at 5:16:57 PM

Latest Report: May 28, 2015 at 4:52 PM


Visibility: 10 mi

Pressure: 30.14 "Hg

Humidity: 48%

Dew point: 66 °F

Location of Washington DCLocation

Historic Weather in Washington DC — Graph

°F

Washington DC temperature yesterday

Maximum temperature yesterday: 89 °F (at 1:52 PM)
Minimum temperature yesterday: 75 °F (at 2:52 AM)
Average temperature yesterday: 80 °F

Past Weeks' High & Low Weather Summary

 TemperatureHumidityPressure
High92 °F (May 28, 2:52 PM)91% (May 18, 11:52 PM)30.47 "Hg (May 18, 11:52 PM)
Low53 °F (May 21, 1:52 PM)22% (May 23, 2:52 PM)29.83 "Hg (May 19, 6:52 PM)
Average72 °F59%30.16 "Hg
* Reported May 13 2:52 PM — May 28 2:52 PM, Washington DC, Weather by CustomWeather, © 2015

Note: Actual official high and low records may vary slightly from our data, if they occured in-between our weather recording intervals... More about our weather records

Advertising

Washington DC weather history for previous 24 hours

 ConditionsComfort  
Time TempWeatherWind HumidityBarometerVisibility
2:52 PM
Thu, May 28
92 °FBroken clouds.3 mph36%30.16 "Hg10 mi
1:52 PM90 °FMore clouds than sun.7 mph39%30.17 "Hg10 mi
12:52 PM90 °FMore clouds than sun.7 mph39%30.18 "Hg10 mi
11:52 AM85 °FPartly sunny.5 mph57%30.19 "Hg10 mi
10:52 AM83 °FMore clouds than sun.5 mph65%30.19 "Hg10 mi
9:52 AM79 °FMore clouds than sun.6 mph74%30.19 "Hg10 mi
8:52 AM77 °FMore clouds than sun.6 mph74%30.20 "Hg10 mi
7:52 AM75 °FMore clouds than sun.8 mph79%30.18 "Hg10 mi
6:56 AM73 °FMore clouds than sun.9 mph83%30.18 "Hg10 mi
5:52 AM74 °FPassing clouds.9 mph79%30.15 "Hg10 mi
4:52 AM74 °FPassing clouds.8 mph79%30.12 "Hg10 mi
3:52 AM75 °FPassing clouds.8 mph82%30.12 "Hg10 mi
2:52 AM75 °FPassing clouds.7 mph79%30.12 "Hg10 mi
1:52 AM76 °FPassing clouds.9 mph82%30.14 "Hg10 mi
12:52 AM77 °FClear.7 mph79%30.14 "Hg10 mi
11:52 PM
Wed, May 27
77 °FPassing clouds.No wind77%30.14 "Hg10 mi
10:52 PM77 °FPartly cloudy.3 mph74%30.14 "Hg10 mi
9:52 PM80 °FPartly cloudy.No wind67%30.14 "Hg10 mi
8:52 PM80 °FBroken clouds.5 mph69%30.12 "Hg10 mi
7:52 PM82 °FPartly sunny.8 mph65%30.11 "Hg10 mi
6:52 PM84 °FBroken clouds.No wind57%30.12 "Hg10 mi
5:52 PM83 °FBroken clouds.7 mph59%30.11 "Hg10 mi
Weather by CustomWeather, © 2015

See weather overviewHow to use our weather pages